Theta_e
337 331 328 321 306 306 301 303 307 308 310 315 318 316 314 319 316 310 332 334 338 340 343 344 347 349 350 349 349 346 343 341 341 340 339 341 343 344 344 342 342 340 337 337 337 338 336 336 336
334 331 325 316 304 300 299 305 306 311 315 317 317 317 315 316 327 328 329 335 337 340 342 342 345 347 348 348 346 345 341 340 339 339 339 340 342 342 342 340 341 338 337 337 336 336 335 336 335
333 328 316 311 305 298 299 306 310 314 316 315 314 317 318 318 327 329 334 334 336 339 342 343 344 347 347 347 346 345 343 340 341 340 339 339 342 341 341 342 341 337 337 336 335 335 335 335 335
327 323 319 306 304 303 303 307 314 313 314 317 315 314 323 328 327 333 336 335 333 339 342 342 345 347 347 346 346 345 344 342 341 341 340 338 341 341 342 341 340 336 335 336 335 334 334 334 334
326 318 308 305 306 307 308 310 313 311 312 314 313 311 318 327 335 335 334 335 331 334 339 342 344 346 346 346 345 344 343 342 341 340 339 337 341 341 341 341 338 336 334 334 335 334 334 334 334
316 316 304 302 307 310 310 311 311 312 312 313 309 308 319 330 331 332 334 333 333 333 338 340 337 340 343 344 344 344 342 341 340 339 339 338 340 340 338 339 338 336 334 334 334 334 333 333 333
313 310 305 306 306 308 309 312 309 311 311 310 313 304 320 325 332 333 332 333 332 332 337 338 338 338 337 339 340 341 341 340 339 338 338 336 336 338 338 338 338 336 335 333 333 333 332 332 331
316 311 306 305 304 306 309 311 312 311 311 318 316 307 313 325 332 333 331 331 330 330 331 335 337 338 338 338 334 336 337 337 337 336 333 332 332 332 333 333 336 336 335 334 333 332 332 331 330
320 304 300 304 306 309 309 308 311 313 312 313 318 318 324 330 331 329 329 328 327 328 328 330 336 337 338 338 333 331 333 333 333 331 328 326 328 328 327 329 333 335 334 333 333 332 331 330 328
312 304 303 309 309 310 310 307 309 308 309 311 315 323 329 328 327 326 326 324 324 324 325 327 332 336 338 337 334 334 334 333 333 331 328 329 326 325 328 324 328 331 330 331 330 331 330 326 322
311 305 309 309 312 315 314 309 309 306 305 311 312 320 326 324 325 325 325 325 323 323 323 325 330 335 336 334 333 332 333 332 332 331 330 330 328 325 325 323 323 323 321 323 325 322 322 322 322
306 311 311 312 313 315 312 314 311 307 309 313 311 323 325 322 323 324 324 325 323 321 321 324 326 329 332 332 331 331 330 329 328 330 331 328 326 325 323 322 321 322 321 321 320 321 322 322 323
307 309 312 311 312 312 315 311 310 311 314 313 313 313 323 323 323 326 327 327 321 318 319 322 322 324 328 328 328 327 326 327 328 328 329 328 326 325 325 322 321 321 321 320 320 320 320 320 321
307 308 309 310 310 311 310 310 310 311 315 315 311 311 315 322 323 324 325 326 323 318 318 322 321 321 324 326 325 325 324 326 327 326 327 328 326 325 324 323 321 320 319 319 319 318 318 317 318
307 302 305 307 308 307 311 305 307 313 315 312 313 311 313 317 322 324 326 326 326 322 319 321 321 321 321 323 324 322 323 324 325 325 326 327 326 324 323 322 322 321 320 319 318 318 318 317 317
302 302 296 304 306 307 307 297 306 310 311 311 310 310 311 314 318 322 326 327 328 326 321 322 324 322 322 322 323 323 322 321 321 322 324 325 326 324 322 320 320 321 320 319 318 318 317 316 315
299 292 295 298 304 303 303 298 306 309 308 306 308 310 313 312 314 319 323 326 328 329 326 321 323 323 323 322 322 322 322 321 321 320 321 324 325 325 321 320 320 320 319 319 319 317 316 315 315
291 292 294 294 299 301 299 299 304 307 307 305 306 308 310 313 314 318 322 325 326 328 328 325 322 323 324 323 321 321 321 321 321 320 320 321 324 324 321 322 322 321 318 317 317 317 317 316 316
297 294 293 296 301 298 297 299 302 305 305 305 305 306 308 311 315 318 321 324 325 327 328 327 323 322 323 322 321 320 320 321 321 320 321 321 322 323 322 321 322 322 319 317 317 317 317 316 317
297 294 294 297 300 297 296 296 300 302 303 305 305 306 307 308 312 316 320 322 324 326 327 328 326 324 323 322 323 323 322 322 323 322 322 321 321 323 323 322 322 321 320 319 318 318 317 316 318
296 294 294 294 298 299 296 294 296 301 303 305 307 308 308 308 308 313 315 320 323 325 326 327 328 326 325 324 323 322 322 320 321 322 322 322 322 323 324 323 323 322 322 321 319 320 318 316 317
292 298 297 295 294 287 296 285 293 297 300 302 304 305 307 309 310 311 313 313 321 324 327 328 328 328 326 325 324 322 320 318 320 321 322 323 324 323 323 323 324 324 324 322 322 322 320 318 316
294 299 297 296 293 292 292 288 291 296 295 298 301 303 305 308 309 310 312 314 315 323 325 327 328 328 328 326 325 324 322 321 321 321 321 322 324 324 324 324 324 324 325 325 323 321 322 321 318
300 296 296 295 293 284 289 288 287 292 295 299 301 302 303 306 307 309 312 313 315 317 325 325 326 327 328 328 326 325 323 322 321 321 321 322 325 325 325 325 324 325 325 325 325 324 322 324 324
298 292 284 283 282 282 290 288 290 297 299 299 300 301 303 304 306 306 308 308 309 311 321 324 324 324 327 328 328 326 325 324 322 323 323 323 324 325 325 324 324 325 326 326 326 326 325 324 323
293 292 284 274 277 280 287 283 290 299 302 303 303 304 304 304 305 306 309 310 311 311 314 322 323 323 325 326 327 328 327 326 325 325 325 325 326 327 327 327 326 326 327 327 326 325 325 325 324
292 289 294 284 284 283 284 290 296 299 300 300 301 301 301 304 305 306 308 308 309 310 312 314 321 324 325 325 326 327 328 327 326 326 327 327 327 328 328 327 326 327 327 327 326 325 324 323 323
295 296 287 286 279 278 283 282 288 293 297 300 299 299 300 301 301 304 307 308 308 309 309 312 317 321 324 325 325 326 327 328 327 327 326 327 328 328 327 327 326 326 327 326 325 325 323 321 321
291 290 290 290 285 279 278 283 293 294 296 296 296 297 296 296 297 298 300 302 302 304 306 308 311 315 318 323 324 324 325 326 327 327 327 327 328 327 326 327 326 325 325 325 325 324 321 320 319
293 291 291 283 279 284 283 284 296 297 298 298 298 298 298 297 297 298 299 299 299 300 302 302 305 307 310 314 322 322 324 325 325 325 326 327 327 327 326 325 325 325 324 324 324 323 320 319 317
Wind_Speed
19 15 7 2 2 2 6 4 4 4 5 3 7 5 5 11 6 4 5 7 12 13 10 8 9 10 13 15 15 14 14 13 14 14 13 11 11 14 15 16 15 13 15 15 15 14 16 15 15
11 16 5 4 2 4 5 4 7 8 9 6 4 3 4 6 8 8 7 7 10 12 10 9 10 11 13 14 14 14 14 13 13 14 13 11 13 15 14 16 14 13 13 14 14 14 14 13 13
17 15 3 3 2 5 4 4 9 7 4 2 4 2 4 5 8 8 10 9 8 12 11 10 11 11 12 12 13 13 12 12 11 13 13 12 11 14 12 15 16 12 12 13 13 13 12 12 12
6 5 3 3 4 7 5 6 11 6 2 3 6 8 7 5 2 8 10 9 7 14 12 9 11 12 12 12 13 13 12 11 11 11 11 13 10 14 12 15 15 13 11 12 12 12 12 11 10
4 4 4 3 5 8 6 4 6 5 6 6 2 5 6 4 10 9 8 9 8 9 10 8 10 12 12 12 13 13 12 11 12 11 11 11 10 13 13 13 14 12 11 11 11 11 10 10 8
4 3 4 6 1 7 7 4 2 6 7 6 2 4 5 8 9 6 6 8 8 8 10 8 7 9 12 12 12 12 12 11 12 11 9 8 11 13 11 9 12 12 11 10 10 10 9 8 6
4 3 8 11 6 5 5 0 3 4 8 4 3 2 6 7 12 6 6 8 7 8 11 9 7 6 8 11 12 12 12 10 10 10 8 7 8 9 10 10 10 10 10 10 9 8 7 6 5
3 3 6 8 4 5 5 2 5 4 4 4 2 4 5 9 10 9 4 7 7 6 7 9 9 7 6 6 10 12 12 12 11 10 9 8 7 8 8 8 8 9 9 8 8 7 6 5 4
3 3 5 10 7 6 8 4 2 4 2 1 6 5 8 14 8 6 6 4 4 5 4 6 9 7 8 7 6 9 10 10 9 9 9 8 4 5 5 7 8 8 7 7 6 6 5 5 3
3 4 8 10 6 10 7 2 6 3 5 5 6 9 14 9 8 9 9 7 6 6 5 4 7 8 8 8 7 6 6 5 5 6 6 4 6 5 6 6 7 7 6 6 5 4 5 6 4
5 8 12 10 7 8 10 3 1 4 5 7 11 15 15 11 10 12 13 8 7 6 5 6 8 7 6 7 5 4 5 4 5 7 6 5 5 4 4 3 3 3 5 3 4 4 4 5 4
13 9 9 13 5 4 8 9 6 7 10 5 5 16 14 13 13 12 12 11 12 9 8 8 7 8 9 5 6 5 5 4 4 5 7 4 3 4 4 4 5 5 4 5 5 3 4 1 3
8 8 14 10 6 6 6 9 7 9 9 5 6 2 13 11 12 11 11 9 9 10 9 9 8 7 6 6 5 4 5 4 5 5 6 5 5 5 4 4 4 4 4 4 3 3 2 3 3
8 9 13 14 7 9 9 9 7 7 8 8 8 8 7 12 14 11 11 11 10 10 10 9 8 8 7 6 6 4 4 5 5 5 5 7 5 5 5 4 4 4 4 4 4 4 4 3 3
13 12 12 10 10 9 7 11 12 10 12 8 10 8 9 9 11 15 14 12 10 10 9 10 9 8 8 8 6 5 5 5 5 5 7 7 5 6 5 5 4 4 4 5 4 3 1 2 3
7 13 13 7 13 12 8 16 8 10 13 14 12 9 10 11 10 10 13 14 12 10 12 11 10 9 8 7 6 4 5 5 5 5 5 7 7 5 5 4 4 5 5 4 3 4 3 4 4
12 9 15 14 17 11 13 8 8 11 14 14 9 10 9 10 11 11 11 14 14 14 13 13 13 11 10 8 6 6 6 5 5 5 5 7 7 7 5 5 5 6 4 4 4 4 3 3 4
6 16 17 15 9 15 15 17 9 9 12 11 9 9 9 11 13 12 12 12 12 14 14 13 13 13 11 7 5 4 5 5 5 5 6 8 7 8 6 5 6 5 4 4 3 4 3 4 4
13 15 16 13 13 13 10 14 14 10 11 14 13 12 10 9 10 12 15 14 12 12 16 18 16 16 12 9 8 7 9 7 6 5 8 8 8 9 8 5 6 6 6 6 6 5 6 3 3
17 18 19 9 5 4 8 14 7 9 13 16 14 13 14 12 11 12 13 15 15 16 17 18 19 18 14 11 11 9 9 7 8 6 7 8 8 10 10 8 7 7 5 7 7 6 4 4 5
18 19 18 13 9 5 7 12 10 11 14 14 19 15 12 11 10 12 9 15 15 16 17 17 20 20 17 16 9 6 6 4 6 8 9 10 11 10 12 11 9 7 7 8 7 7 8 5 5
19 16 13 11 8 7 2 9 12 7 17 20 22 19 18 17 16 13 12 7 14 17 15 15 15 16 17 18 14 16 13 13 11 10 9 10 13 13 13 11 11 10 8 9 9 8 6 5 6
16 12 15 16 14 10 14 9 12 7 14 22 14 13 11 20 18 19 18 17 10 14 16 16 16 16 17 19 19 15 14 12 9 9 13 13 12 15 14 13 12 11 8 9 9 6 10 7 5
17 3 6 12 10 12 22 16 12 15 23 24 13 12 11 15 13 14 17 14 15 11 16 17 18 19 17 17 19 19 20 16 12 13 11 11 10 10 14 14 13 12 11 10 10 10 8 9 9
13 11 5 8 10 11 13 10 19 19 16 12 11 13 10 11 10 8 9 8 8 10 16 15 17 20 19 19 19 21 19 18 18 16 13 12 11 10 14 16 14 12 13 13 11 11 11 9 10
13 14 6 7 3 7 9 7 14 19 20 22 19 19 17 10 8 7 8 7 8 9 8 16 17 19 19 20 21 19 21 14 14 14 12 11 12 12 13 15 15 15 14 13 12 9 9 9 9
15 17 18 7 4 5 3 8 10 13 17 7 6 6 6 6 8 10 9 7 7 7 8 9 18 18 18 20 18 20 19 19 17 18 14 12 12 10 13 15 16 15 15 15 12 10 11 9 9
17 8 6 5 10 12 7 5 9 2 9 10 4 5 7 8 9 9 5 5 6 8 8 8 11 17 17 17 16 16 19 18 17 14 16 15 13 12 14 14 16 15 14 13 12 11 8 9 8
8 7 3 1 5 4 2 5 5 5 7 8 7 5 3 2 4 6 6 6 7 7 7 8 7 8 10 15 15 16 16 18 17 16 16 16 15 14 14 15 15 15 15 14 13 12 11 13 10
19 15 10 6 7 2 2 9 7 7 6 7 5 2 3 5 5 4 6 6 6 7 8 7 7 5 3 6 10 13 14 15 17 17 18 15 15 13 15 13 12 13 13 13 14 12 11 12 12
Wind_Direction
313 314 305 298 329 111 60 64 91 104 114 49 66 24 30 33 14 84 113 96 114 108 120 112 121 132 125 121 118 107 108 107 103 104 103 99 94 92 93 88 89 83 86 84 85 89 86 81 81
304 307 294 260 274 31 71 99 78 57 75 66 93 301 33 79 72 122 96 134 117 123 126 123 121 129 121 115 109 111 114 113 114 112 109 110 90 95 87 101 93 94 95 90 92 93 89 84 85
310 289 277 319 251 64 60 72 97 78 78 154 151 57 15 89 100 142 114 134 130 114 105 118 127 130 123 118 116 117 118 119 117 120 118 121 101 101 88 110 97 93 94 94 93 93 91 88 86
321 305 259 258 31 88 48 58 110 122 64 360 20 97 86 15 74 114 151 135 124 127 113 128 136 140 135 132 125 124 119 120 114 115 115 123 103 101 93 103 99 100 97 97 97 94 91 89 83
306 267 267 285 283 99 85 72 135 158 134 143 130 118 94 90 87 126 148 139 128 119 117 130 142 143 143 138 134 131 125 122 118 113 119 130 103 108 100 107 104 103 101 99 99 96 93 88 85
298 299 295 267 358 106 94 32 196 167 108 88 203 261 92 130 121 132 158 141 139 126 131 129 137 141 145 141 136 130 125 124 122 121 126 136 89 103 103 99 98 102 104 106 103 102 98 96 90
279 289 284 293 290 308 81 135 227 208 139 148 69 311 117 144 122 165 205 126 133 128 130 134 147 139 136 142 140 136 132 131 128 123 109 95 86 80 101 99 97 108 107 107 109 108 108 105 90
303 283 283 290 296 283 108 188 357 333 91 105 55 357 129 149 133 161 162 114 138 134 146 149 145 154 148 145 144 143 144 140 134 125 119 112 104 99 102 102 107 109 113 114 116 123 121 110 100
294 276 254 267 280 271 130 191 163 26 108 117 132 64 93 118 156 142 142 155 162 141 191 150 151 162 156 136 152 141 139 140 137 134 145 146 143 165 139 102 112 109 110 118 133 134 132 137 158
245 236 249 275 1 345 146 186 160 193 202 179 138 106 111 130 148 158 173 192 160 161 187 195 139 153 155 151 152 145 142 153 163 160 178 192 163 126 135 112 118 126 133 137 146 158 171 195 209
224 236 278 287 7 11 334 123 347 283 251 203 195 158 146 147 174 184 192 198 179 187 189 201 153 162 161 155 168 165 161 178 179 175 192 219 122 136 132 135 149 156 183 186 175 185 215 230 233
267 269 275 290 353 18 315 321 311 227 276 38 48 145 152 161 183 193 197 198 184 185 186 183 193 175 175 157 173 183 174 182 176 175 187 171 143 163 187 163 185 184 181 224 198 204 222 283 272
230 253 281 267 318 278 267 285 270 290 290 209 122 11 161 175 189 203 200 197 183 180 185 180 182 194 182 181 177 191 169 167 189 186 181 163 165 177 195 191 176 177 180 213 207 233 200 230 262
254 232 239 266 250 258 251 264 276 268 278 290 173 197 219 187 193 192 198 206 192 176 179 177 192 177 188 188 183 198 172 173 193 181 180 187 178 179 187 189 181 190 185 203 209 208 207 221 220
267 260 277 252 271 256 278 268 257 262 280 280 283 200 217 211 193 198 196 202 202 177 176 175 180 182 182 182 200 190 181 176 187 182 182 186 206 183 180 185 185 199 197 203 205 247 232 284 258
246 248 247 227 246 248 202 255 277 287 238 242 250 215 217 210 205 204 197 200 197 181 178 177 182 185 186 182 191 196 184 182 184 185 181 181 196 203 190 192 193 197 190 181 200 211 221 215 224
226 243 233 242 242 237 207 252 233 252 260 272 259 245 238 205 200 200 207 199 195 189 180 176 181 189 189 192 183 187 201 183 185 184 190 189 187 196 192 197 202 200 194 186 195 221 191 219 242
213 224 241 254 232 223 241 247 228 253 275 278 277 259 252 264 207 197 199 209 196 188 185 180 180 188 191 196 184 186 185 189 193 197 185 187 187 189 196 198 199 189 178 203 207 210 232 202 226
254 242 249 246 224 255 253 238 240 238 257 271 262 266 264 269 282 209 191 195 206 192 188 188 187 186 179 193 194 196 202 194 199 194 197 191 189 192 196 199 194 190 185 192 203 191 209 257 211
237 251 261 272 239 306 260 266 250 245 259 265 261 254 246 250 248 274 199 192 193 204 202 191 192 187 188 192 193 198 197 202 200 194 199 199 196 195 196 196 200 193 179 193 201 197 197 214 200
235 238 249 270 313 319 341 284 279 270 279 268 260 261 250 253 251 245 225 195 194 205 210 204 200 190 189 191 192 189 192 191 194 202 202 204 201 200 200 200 200 200 189 196 196 197 192 208 224
233 230 253 268 283 254 108 275 249 245 252 247 246 246 251 244 247 249 251 237 203 203 200 214 212 204 197 188 189 200 198 200 206 201 201 204 201 203 206 204 200 203 201 197 200 200 198 176 214
233 223 235 232 247 261 259 264 256 202 252 248 252 257 257 239 236 238 237 237 213 197 199 204 209 214 204 198 199 196 203 210 197 194 201 206 203 204 204 205 206 208 206 205 200 193 201 201 198
230 215 251 241 242 238 242 225 260 245 248 266 268 260 261 247 238 233 236 231 228 203 200 201 204 206 213 209 207 206 205 205 200 198 199 204 202 199 204 203 207 209 207 205 205 206 200 205 225
204 200 227 220 217 232 236 225 240 268 252 270 258 261 261 269 251 247 238 221 226 205 200 199 205 212 206 210 208 207 214 211 209 205 206 200 200 201 204 200 204 206 209 207 205 201 214 216 216
206 189 191 211 200 249 218 232 250 237 256 245 252 258 265 288 284 284 274 249 237 232 203 207 206 214 210 208 211 210 212 215 214 210 209 208 207 203 194 198 204 209 208 209 206 212 212 209 206
206 215 227 289 103 290 266 296 300 264 270 267 266 247 279 286 258 250 239 236 255 263 239 212 213 213 210 210 213 213 212 215 216 215 211 210 210 201 194 193 198 203 207 210 204 209 211 198 198
212 165 183 179 216 228 225 258 240 279 247 247 266 49 23 2 1 347 335 314 273 267 265 262 229 200 208 211 213 215 216 215 217 217 215 214 213 200 195 193 197 201 203 202 199 209 196 187 198
189 191 227 81 229 188 148 230 230 116 66 81 87 82 67 319 325 333 342 319 300 294 283 259 262 214 218 210 213 213 216 216 213 215 215 213 209 200 198 197 195 195 199 198 198 198 184 194 196
217 204 177 182 202 225 105 254 340 79 118 121 113 149 247 231 236 226 246 238 262 269 276 269 269 272 261 264 226 219 217 221 218 213 213 210 208 200 196 193 192 194 196 197 201 198 179 188 193